Whitefield, NH

10:27 AM EDT on April 30, 2017 (GMT -0400)
Mount Washington Regional

Weather History for KHIE - September, 2013

Change the Weather History Date:

Thursday, September 26, 2013

  Actual Average Record
Temperature  
Mean Temperature 50 °F -  
Max Temperature 63 °F 63 °F 82 °F (2007)
Min Temperature 39 °F 35 °F 28 °F (2000)
Degree Days  
Heating Degree Days 15    
Moisture  
Dew Point 44 °F    
Average Humidity 77    
Maximum Humidity 93    
Minimum Humidity 56    
Precipitation  
Precipitation 0.00 in - - ()
Sea Level Pressure  
Sea Level Pressure 30.10 in    
Wind  
Wind Speed 1 mph (North)    
Max Wind Speed 9 mph    
Max Gust Speed -    
Visibility 10 miles    
Events      
Averages and records for this station are not official NWS values.
T = Trace of Precipitation, MM = Missing Value Source: NWS Daily Summary

Daily Weather History Graph

Daily Weather History Graph

Search for Another Location

Airport or City:

Trip Planner

Search our weather history database for the weather conditions in past years. The results will help you decide how hot, cold, wet, or windy it might be!

Date:

Astronomy

Sep. 26, 2013 Rise Set
Actual Time 6:38 AM EDT 6:35 PM EDT
Civil Twilight 6:09 AM EDT 7:04 PM EDT
Nautical Twilight 5:35 AM EDT 7:38 PM EDT
Astronomical Twilight 5:00 AM EDT 8:12 PM EDT
Moon 11:20 PM EDT (9/26) 1:39 PM EDT (9/26)
Length of Visible Light 12h 55m
Length of Day
11h 57m
Waning Gibbous, 55% of the Moon is Illuminated
Sep 26
Waning Gibbous
Sep 26
Last Quarter
Oct 4
New
Oct 11
First Quarter
Oct 18
Full

Hourly Weather History & Observations

Time (EDT) Temp. Dew Point Humidity Pressure Visibility Wind Dir Wind Speed Gust Speed Precip Events Conditions
12:36 AM 41.0 °F 37.4 °F 87% 30.02 in 10.0 mi Calm Calm - N/A   Scattered Clouds
12:52 AM 39.0 °F 37.0 °F 93% 30.04 in 10.0 mi Calm Calm - N/A   Mostly Cloudy
1:52 AM 42.1 °F 39.9 °F 92% 30.05 in 10.0 mi Calm Calm - N/A   Overcast
2:52 AM 44.1 °F 41.0 °F 89% 30.05 in 10.0 mi Calm Calm - N/A   Overcast
3:52 AM 44.1 °F 42.1 °F 93% 30.06 in 10.0 mi Calm Calm - N/A   Overcast
4:52 AM 45.0 °F 43.0 °F 93% 30.06 in 10.0 mi Calm Calm - N/A   Overcast
5:52 AM 45.0 °F 42.1 °F 90% 30.06 in 10.0 mi Calm Calm - N/A   Overcast
6:52 AM 45.0 °F 43.0 °F 93% 30.08 in 10.0 mi Calm Calm - N/A   Overcast
7:52 AM 46.9 °F 44.1 °F 90% 30.09 in 10.0 mi Calm Calm - N/A   Overcast
8:52 AM 48.9 °F 45.0 °F 86% 30.10 in 10.0 mi Calm Calm - N/A   Overcast
9:52 AM 53.1 °F 43.0 °F 69% 30.11 in 10.0 mi NNE 3.5 mph - N/A   Overcast
10:14 AM 53.6 °F 44.6 °F 72% 30.09 in 10.0 mi NNE 6.9 mph - N/A   Overcast
10:52 AM 55.0 °F 43.0 °F 64% 30.11 in 10.0 mi NW 4.6 mph - N/A   Overcast
11:52 AM 55.9 °F 44.1 °F 64% 30.12 in 10.0 mi North 4.6 mph - N/A   Overcast
12:52 PM 57.9 °F 44.1 °F 60% 30.11 in 10.0 mi Calm Calm - N/A   Overcast
1:24 PM 57.2 °F 44.6 °F 63% 30.08 in 10.0 mi Variable 3.5 mph - N/A   Overcast
1:52 PM 59.0 °F 45.0 °F 60% 30.10 in 10.0 mi North 3.5 mph - N/A   Mostly Cloudy
2:52 PM 61.0 °F 45.0 °F 56% 30.10 in 10.0 mi NNW 8.1 mph - N/A   Overcast
3:52 PM 59.0 °F 46.0 °F 62% 30.10 in 10.0 mi North 8.1 mph - N/A   Overcast
4:52 PM 57.9 °F 46.0 °F 65% 30.12 in 10.0 mi NNW 9.2 mph - N/A   Overcast
5:52 PM 57.0 °F 46.0 °F 67% 30.13 in 10.0 mi North 4.6 mph - N/A   Overcast
6:52 PM 55.9 °F 46.0 °F 69% 30.14 in 10.0 mi Calm Calm - N/A   Overcast
7:52 PM 55.0 °F 46.9 °F 74% 30.16 in 10.0 mi Calm Calm - N/A   Overcast
8:52 PM 54.0 °F 48.0 °F 80% 30.17 in 10.0 mi Calm Calm - N/A   Overcast
9:29 PM 53.6 °F 46.4 °F 77% 30.15 in 10.0 mi Calm Calm - N/A   Overcast
9:52 PM 54.0 °F 46.9 °F 77% 30.17 in 10.0 mi Calm Calm - N/A   Overcast
10:52 PM 54.0 °F 46.9 °F 77% 30.18 in 10.0 mi Calm Calm - N/A   Overcast
11:52 PM 53.1 °F 46.9 °F 80% 30.19 in 10.0 mi Calm Calm - N/A   Overcast